Location: Musselshell
(46.5176°N, 108.0911°W)
Time: 21:49:59
(UTC+00:00)

PicSat - Pass Details

Date: 29 June 2022
Orbit: 446 x 455 km, 97.4° (Epoch: 13 August)

Event Time Altitude Azimuth Distance (km) Brightness Sun altitude
Exits shadow 06:40:56 11° 255° (WSW) 1,533 ? -19.8°
Maximum altitude 06:41:48 12° 270° (W) 1,489 ? -19.8°
Drops below altitude 10° 06:43:11 10° 294° (WNW) 1,611 ? -19.9°
Sets 06:46:24 0° 327° (NNW) 2,498 ? -19.9°
